Weather History for YPAD - April, 2013

Change the Weather History Date:

Thursday, April 4, 2013

  Actual Average Record
Temperature  
Mean Temperature 61 °F -  
Max Temperature 69 °F 71 °F 84 °F (2012)
Min Temperature 53 °F 52 °F 44 °F (1998)
Degree Days  
Heating Degree Days 4    
Growing Degree Days 11 (Base 50)    
Moisture  
Dew Point 45 °F    
Average Humidity 51    
Maximum Humidity 72    
Minimum Humidity 29    
Precipitation  
Precipitation 0.00 in 0.05 in - ()
Sea Level Pressure  
Sea Level Pressure 30.30 in    
Wind  
Wind Speed 11 mph ()    
Max Wind Speed 21 mph    
Max Gust Speed -    
Visibility 19.0 miles    
Events      
Averages and records for this station are not official NWS values.
T = Trace of Precipitation, MM = Missing Value Source: Averaged Metar Reports

Daily Weather History Graph

Daily Weather History Graph

Search for Another Location

Airport or City:

Trip Planner

Search our weather history database for the weather conditions in past years. The results will help you decide how hot, cold, wet, or windy it might be!

Date:

Astronomy

Apr. 04, 2013 Rise Set
Actual Time 7:30 AM ACDT 7:06 PM ACDT
Civil Twilight 7:05 AM ACDT 7:31 PM ACDT
Nautical Twilight 6:36 AM ACDT 8:01 PM ACDT
Astronomical Twilight 6:06 AM ACDT 8:30 PM ACDT
Moon 12:58 AM ACDT (4/4) 3:04 PM ACDT (4/4)
Length of Visible Light 12h 26m
Length of Day
11h 35m
Last Quarter, 40% of the Moon is Illuminated
Apr 4
Last Quarter
Apr 10
New
Apr 18
First Quarter
Apr 26
Full
May 2
Last Quarter

Hourly Weather History & Observations

Time (ACDT) Temp. Dew Point Humidity Pressure Visibility Wind Dir Wind Speed Gust Speed Precip Events Conditions
12:00 AM 60 °F 50 °F 60% 30.32 in 19 mi SE 16.1 mph - -   Partly Cloudy
12:00 AM 60.8 °F 50.0 °F 68% 30.30 in - SE 16.1 mph - N/A   Clear
12:30 AM 60.8 °F 50.0 °F 68% 30.30 in - SE 15.0 mph - N/A   Clear
1:00 AM 59.0 °F 48.2 °F 67% 30.30 in - SE 15.0 mph - N/A   Clear
1:30 AM 60 °F 48 °F 54% 30.31 in - SE 12.7 mph - -  
1:30 AM 59.0 °F 48.2 °F 67% 30.30 in - SE 12.7 mph - N/A   Clear
2:00 AM 59.0 °F 44.6 °F 59% 30.30 in - ESE 8.1 mph - N/A   Clear
2:30 AM 59.0 °F 44.6 °F 59% 30.30 in - East 6.9 mph - N/A   Clear
3:00 AM 58 °F 43 °F 47% 30.32 in 19 mi East 9.2 mph - -   Partly Cloudy
3:00 AM 57.2 °F 42.8 °F 59% 30.30 in - East 9.2 mph - N/A   Clear
3:30 AM 57.2 °F 42.8 °F 59% 30.30 in - East 10.4 mph - N/A   Clear
4:00 AM 57.2 °F 41.0 °F 55% 30.30 in - ESE 6.9 mph - N/A   Clear
4:30 AM 57 °F 42 °F 45% 30.31 in - East 4.6 mph - -  
4:30 AM 57.2 °F 41.0 °F 55% 30.30 in - East 4.6 mph - N/A   Clear
5:00 AM 55.4 °F 41.0 °F 58% 30.30 in - East 3.5 mph - N/A   Clear
5:30 AM 53.6 °F 42.8 °F 67% 30.30 in - Calm Calm - N/A   Clear
6:00 AM 54 °F 42 °F 52% 30.32 in 19 mi ENE 5.8 mph - -   Partly Cloudy
6:00 AM 53.6 °F 41.0 °F 62% 30.30 in - ENE 5.8 mph - N/A   Clear
6:30 AM 53.6 °F 41.0 °F 62% 30.30 in - ENE 8.1 mph - N/A   Clear
7:00 AM 55.4 °F 41.0 °F 58% 30.30 in - ENE 9.2 mph - N/A   Clear
7:30 AM 56 °F 41 °F 46% 30.33 in - ENE 11.5 mph - -  
7:30 AM 55.4 °F 41.0 °F 58% 30.30 in - ENE 11.5 mph - N/A   Clear
8:00 AM 57.2 °F 41.0 °F 55% 30.33 in - ENE 13.8 mph - N/A   Clear
8:30 AM 59.0 °F 41.0 °F 51% 30.33 in - East 12.7 mph - N/A   Clear
9:00 AM 61 °F 40 °F 35% 30.34 in 19 mi East 9.2 mph - -   Partly Cloudy
9:00 AM 60.8 °F 41.0 °F 48% 30.33 in - East 9.2 mph - N/A   Clear
9:30 AM 62.6 °F 41.0 °F 45% 30.33 in - ENE 12.7 mph - N/A   Clear
10:00 AM 62.6 °F 41.0 °F 45% 30.33 in - ENE 12.7 mph - N/A   Clear
10:30 AM 65 °F 41 °F 30% 30.35 in - East 12.7 mph - -  
10:30 AM 64.4 °F 41.0 °F 42% 30.33 in - East 12.7 mph - N/A   Clear
11:00 AM 66.2 °F 41.0 °F 40% 30.33 in - East 9.2 mph - N/A   Clear
11:30 AM 66.2 °F 41.0 °F 40% 30.33 in - ENE 5.8 mph - N/A   Clear
12:00 PM 68 °F 43 °F 29% 30.34 in 19 mi SSE 5.8 mph - -   Partly Cloudy
12:00 PM 68.0 °F 42.8 °F 40% 30.33 in - SSE 5.8 mph - N/A   Clear
12:30 PM 68.0 °F 44.6 °F 43% 30.33 in - WSW 11.5 mph - N/A   Clear
1:00 PM 68.0 °F 44.6 °F 43% 30.33 in - SW 12.7 mph - N/A   Clear
1:30 PM 68 °F 45 °F 32% 30.32 in - WSW 13.8 mph - -  
1:30 PM 68.0 °F 44.6 °F 43% 30.30 in - WSW 13.8 mph - N/A   Clear
2:00 PM 68.0 °F 46.4 °F 46% 30.30 in - WSW 15.0 mph - N/A   Clear
2:30 PM 68.0 °F 46.4 °F 46% 30.30 in - SW 16.1 mph - N/A   Clear
3:00 PM 68 °F 47 °F 35% 30.29 in 19 mi SW 16.1 mph - -   Partly Cloudy
3:00 PM 68.0 °F 46.4 °F 46% 30.27 in - SW 16.1 mph - N/A   Clear
3:30 PM 68.0 °F 46.4 °F 46% 30.27 in - SW 16.1 mph - N/A   Clear
4:00 PM 69.8 °F 46.4 °F 43% 30.27 in - WSW 17.3 mph - N/A   Clear
4:30 PM 69 °F 48 °F 37% 30.28 in - WSW 18.4 mph - -  
4:30 PM 68.0 °F 48.2 °F 49% 30.27 in - WSW 18.4 mph - N/A   Clear
5:00 PM 69.8 °F 50.0 °F 49% 30.27 in - SW 18.4 mph - N/A   Clear
5:30 PM 68.0 °F 50.0 °F 52% 30.24 in - SW 20.7 mph - N/A   Clear
6:00 PM 68 °F 49 °F 41% 30.26 in 22 mi SW 16.1 mph - -   Partly Cloudy
6:00 PM 68.0 °F 50.0 °F 52% 30.24 in - SW 16.1 mph - N/A   Clear
6:30 PM 69.8 °F 41.0 °F 35% 30.24 in - SE 16.1 mph - N/A   Clear
7:00 PM 66.2 °F 44.6 °F 46% 30.27 in - SE 18.4 mph - N/A   Clear
7:30 PM 64 °F 45 °F 38% 30.30 in - SE 15.0 mph - -  
7:30 PM 64.4 °F 44.6 °F 49% 30.27 in - SE 15.0 mph - N/A   Clear
8:00 PM 62.6 °F 46.4 °F 55% 30.30 in - ESE 15.0 mph - N/A   Clear
8:30 PM 60.8 °F 46.4 °F 59% 30.30 in - ESE 11.5 mph - N/A   Clear
9:00 PM 60 °F 46 °F 50% 30.32 in 19 mi ESE 11.5 mph - -   Partly Cloudy
9:00 PM 60.8 °F 46.4 °F 59% 30.30 in - ESE 11.5 mph - N/A   Clear
9:30 PM 60.8 °F 46.4 °F 59% 30.30 in - SE 10.4 mph - N/A   Clear
10:00 PM 60.8 °F 48.2 °F 63% 30.30 in - ESE 9.2 mph - N/A   Clear
10:30 PM 59 °F 48 °F 58% 30.32 in - ESE 5.8 mph - -  
10:30 PM 59.0 °F 48.2 °F 67% 30.30 in - ESE 5.8 mph - N/A   Clear
11:00 PM 59.0 °F 48.2 °F 67% 30.30 in - ESE 6.9 mph - N/A   Clear
11:30 PM 57.2 °F 48.2 °F 72% 30.30 in - ESE 6.9 mph - N/A   Clear